Location: Góry Miechowskie
(50.3599°N, 20.1803°E)
Time: 15:58:04
(UTC+00:00)

Vanguard 2 - All Passes

Search period start: 13 September 2024 00:00
Search period end: 23 September 2024 00:00
Orbit: 552 x 2911 km, 32.9° (Epoch: 12 September)

Date Brightness Start Highest point End Pass type
(mag) Time Alt. Az. Time Alt. Az. Time Alt. Az.
13 Sep - 02:20:36 10° S 02:23:01 12° SSE 02:25:49 10° SE visible
13 Sep - 04:24:07 10° SW 04:29:55 25° S 04:38:11 10° ESE daylight
13 Sep - 06:30:46 10° WSW 06:38:01 25° S 06:48:07 10° SE daylight
13 Sep - 08:40:30 10° WSW 08:46:43 15° SSW 08:54:07 10° S daylight
14 Sep - 02:33:11 10° S 02:36:24 14° SSE 02:40:18 10° ESE visible
14 Sep - 04:37:44 10° SW 04:43:29 24° S 04:51:39 10° SE daylight
14 Sep - 06:44:51 10° WSW 06:51:39 22° SSW 07:00:49 10° SSE daylight
14 Sep - 08:56:56 10° SW 09:00:17 11° SSW 09:03:55 10° SSW daylight
15 Sep - 02:46:14 10° SSW 02:49:49 16° SSE 02:54:21 10° SE visible
15 Sep - 04:51:28 10° SW 04:57:05 23° S 05:04:58 10° SE daylight
15 Sep - 06:59:10 10° SW 07:05:16 18° SSW 07:13:09 10° SSE daylight
16 Sep - 02:59:31 10° SSW 03:03:18 17° SSE 03:08:10 10° SE visible
16 Sep - 05:05:19 10° SW 05:10:42 21° S 05:18:06 10° SE daylight
16 Sep - 07:13:58 10° SW 07:18:54 15° SSW 07:24:53 10° S daylight
17 Sep - 03:12:59 10° SSW 03:16:49 18° SSE 03:21:47 10° SE visible
17 Sep - 05:19:20 10° SW 05:24:20 19° S 05:30:57 10° SSE daylight
17 Sep - 07:30:10 10° SW 07:32:30 11° SSW 07:35:03 10° SSW daylight
18 Sep - 03:26:36 10° SSW 03:30:22 17° S 03:35:13 10° SE visible
18 Sep - 05:33:37 10° SW 05:37:57 16° S 05:43:27 10° SSE daylight
19 Sep - 01:36:36 10° SSE 01:37:03 10° SSE 01:37:30 10° SSE visible
19 Sep - 03:40:23 10° SW 03:43:57 16° S 03:48:27 10° SE visible
19 Sep - 05:48:26 10° SW 05:51:35 13° SSW 05:55:16 10° S daylight
20 Sep - 01:49:08 10° S 01:50:31 11° SSE 01:52:02 10° SSE visible
20 Sep - 03:54:22 10° SW 03:57:33 14° S 04:01:24 10° SSE daylight
21 Sep - 02:02:27 10° S 02:04:01 11° S 02:05:45 10° SSE visible
21 Sep - 04:08:46 10° SSW 04:11:08 12° S 04:13:52 10° SSE daylight
22 Sep - 02:16:10 10° SSW 02:17:33 11° S 02:19:03 10° SSE visible
